Regional Weather Roundup
Issued by NWS

Home | Current Version | Previous Version | Text Only | Print | Product List | Glossary Off
Versions: 1 2 3 4 5 6 7 8 9 10 11 12 13 14 15 16 17 18 19 20 21 22 23 24 25 26 27 28 29 30 31 32 33 34 35 36 37 38 39 40 41 42 43 44 45 46 47 48 49 50

000
ASUS43 KMKX 240400
RWRWI

WISCONSIN REGIONAL WEATHER ROUNDUP
NATIONAL WEATHER SERVICE MILWAUKEE/SULLIVAN WI
1100 PM CDT TUE SEP 23 2014

NOTE: "FAIR" INDICATES FEW OR NO CLOUDS BELOW 12,000 FEET WITH NO
SIGNIFICANT WEATHER AND/OR OBSTRUCTIONS TO VISIBILITY.

WIZ001-002-006>008-014>016-023>028-240500-
NORTHWEST WISCONSIN

CITY           SKY/WX    TMP DP  RH WIND       PRES   REMARKS
SUPERIOR ARPT  PTCLDY    49  49  99 CALM      30.18R
ASHLAND        CLEAR     49  48  97 S3        30.22R
HAYWARD        PTCLDY    53  52  96 CALM      30.22R
SIREN          MOCLDY    59  53  79 SE6       30.19S
CUMBERLAND     MOCLDY    55  52  88 S5        30.21S
RICE LAKE      MOCLDY    58  51  77 SE5       30.23R
CHETEK         MOCLDY    58  53  84 SE6       30.22R
LADYSMITH      PTCLDY    55  51  84 SE5       30.26R
EAU CLAIRE     NOT AVBL
MENOMONIE      MOCLDY    58  53  83 E6        30.22R
NEW RICHMOND   MOCLDY    58  51  79 CALM      30.21R
OSCEOLA        MOCLDY    60  52  75 SE3       30.22R
$$

WIZ003>005-009-010-017-018-240500-
NORTH CENTRAL WISCONSIN

CITY           SKY/WX    TMP DP  RH WIND       PRES   REMARKS
MANITOWISH WTR CLEAR     47  47 100 CALM      30.25R
ARBOR VITAE    CLEAR     53  49  87 CALM      30.26R
WOODRUFF       CLEAR     53  49  87 CALM      30.26R
RHINELANDER    PTCLDY    51  48  89 CALM      30.28R
EAGLE RIVER    CLEAR     47  47 100 CALM      30.26S
LAND O LAKES   CLEAR     45  44  99 CALM      30.27S FOG
PHILLIPS       MOCLDY    55  50  83 S3        30.25R
TOMAHAWK       PTCLDY    49  47  95 CALM      30.27R
MEDFORD        PTCLDY    53  49  88 SE3       30.26S
MERRILL        PTCLDY    48  47  99 CALM      30.27R
$$

WIZ029-030-035-036-043>047-240500-
CENTRAL WISCONSIN

CITY           SKY/WX    TMP DP  RH WIND       PRES   REMARKS
WAUSAU         PTCLDY    54  51  90 E3        30.27R
MOSINEE        CLEAR     52  52 100 CALM      30.28R
MARSHFIELD     PTCLDY    55  51  86 S3        30.27R
STEVENS POINT  CLEAR     49  47  95 CALM      30.28R
WAUPACA        PTCLDY    55  53  95 CALM      30.28R
WAUTOMA        NOT AVBL
WISC RAPIDS    PTCLDY    54  49  83 S6        30.28R
CAMP DOUGLAS   PTCLDY    48  48 100 SE2       30.27R FOG
$$

WIZ011>013-019>022-031-037>040-048>050-240500-
NORTHEAST WISCONSIN

CITY           SKY/WX    TMP DP  RH WIND       PRES   REMARKS
ANTIGO         CLEAR     53  49  88 S5        30.28S
SHAWANO        CLEAR     60  53  76 S3        30.28R
OCONTO         CLEAR     56  56  99 CALM      30.28S
STURGEON BAY   CLEAR     55  52  88 S9        30.30S
GREEN BAY      CLEAR     53  52  96 CALM      30.29R
MANITOWOC      NOT AVBL
APPLETON       CLEAR     57  54  88 VRB3      30.29R
CLINTONVILLE   PTCLDY    52  50  93 CALM      30.28R
OSHKOSH        PTCLDY    55  51  86 S5        30.28S
$$

WIZ032>034-041-042-053>061-240500-
SOUTHWEST WISCONSIN

CITY           SKY/WX    TMP DP  RH WIND       PRES   REMARKS
LA CROSSE      MOCLDY    59  51  75 E6        30.24R
SPARTA         NOT AVBL
VIROQUA        MOCLDY    58  49  72 SE6       30.26R
BOSCOBEL       MOCLDY    53  51  93 CALM      30.27R FOG
PRAIRIE DU CHI PTCLDY    58  49  72 CALM      30.24R
PLATTEVILLE    MOCLDY    60  49  68 SE8       30.27R
$$

WIZ056-057-062-063-064-067-068-240500-
SOUTH CENTRAL WISCONSIN

CITY           SKY/WX    TMP DP  RH WIND       PRES   REMARKS
REEDSBURG      PTCLDY    53  52  97 CALM      30.27R
BARABOO/DELLS  PTCLDY    56  48  75 CALM      30.27S
LONE ROCK      NOT AVBL
MINERAL POINT  MOCLDY    59  46  63 SE3       30.27R
MADISON        CLEAR     54  50  86 CALM      30.28R
MIDDLETON      CLEAR     50  50  97 CALM      30.28S
WATERTOWN      PTCLDY    54  51  89 CALM      30.29R
MONROE         MOCLDY    59  50  72 SE8       30.28R
JANESVILLE     CLEAR     54  46  76 SE3       30.28S
$$

WIZ051-052-058>065-066-070>072-240500-
SOUTHEAST WISCONSIN

CITY           SKY/WX    TMP DP  RH WIND       PRES   REMARKS
MILWAUKEE      PTCLDY    57  48  72 CALM      30.31R
WAUKESHA       PTCLDY    55  46  71 S5        30.32R
MILWAUKEE/TIMM CLEAR     55  45  67 CALM      30.31S
RACINE         CLEAR     56  51  84 CALM      30.32S
BURLINGTON     PTCLDY    47  47  99 CALM      30.31R
KENOSHA        PTCLDY    49  47  93 CALM      30.32R
FOND DU LAC    PTCLDY    53  49  86 SE6       30.29R
SHEBOYGAN      CLEAR     50  47  89 CALM      30.31R
WEST BEND      PTCLDY    50  46  87 CALM      30.30S
JUNEAU         PTCLDY    54  50  87 SE8       30.30R
$$

LSZ147-162-240500-
LAKE SUPERIOR

STATION/POSITION TIME  TEMP    WIND        PRES    WAVE
                       AIR SEA DIR/SP/G            HT/PER
                 (UTC) (F)     (DEG/KT/KT) (MB)    (FT/S)
W MID LAKE BUOY  0250   55 49  140/  6/  6 1022.5R   0
DEVILS ISLAND    0300   65     170/  8/  9 1022.3R
PORT WING        0300   58     170/  2/  3 1022.4
SAXON HARBOR     0340   56     210/  6/  7 1023.0R
$$

LMZ867-665-643>646-240500-
LAKE MICHIGAN

STATION/POSITION TIME  TEMP    WIND        PRES    WAVE
                       AIR SEA DIR/SP/G            HT/PER
                 (UTC) (F)     (DEG/KT/KT) (MB)    (FT/S)
CHAMBERS ISLAND  0300   60     150/  4/  8 1025.4R
N MID LAKE BUOY  0250   59 58  200/ 10/ 12 1025.9R   1/ 3
NORTHPORT PIER   0300   58     180/  5/ 10 1025.4R
SISTER BAY       0212          150/  9/ 12   N/A
ALGOMA LAKESHORE 0340          230/  7/  8   N/A
KEWAUNEE LAKESHO 0300   56     180/  6/  7 1024.9R
SHEBOYGAN LAKESH 0300   56 53  160/  6/  7 1026.5R
PORT WASHINGTON  0340   55        CALM     1026.8R
ATWATER BUOY     0300   59     150/  6/  8 1026.8R
S MID LAKE BUOY  0250   62 62  130/  6/  6 1026.7R   0
KENOSHA   LAKESH 0300   60     180/  6/  7 1025.7R
$$

TC  - TEMPERATURE IN CELSIUS
VSB - VISIBILITY IN STATUTE MILES
WCI - WIND CHILL INDEX
HX  - HEAT INDEX



USA.gov is the U.S. government's official web portal to all federal, state and local government web resources and services.